Mattoon, IL

11:52 AM CST on December 12, 2017 (GMT -0600)
Coles County Memorial

Weather History for KMTO - September, 2013

Change the Weather History Date:

Wednesday, September 4, 2013

  Actual Average Record
Temperature  
Mean Temperature 68 °F 71 °F  
Max Temperature 83 °F 83 °F 102 °F (1954)
Min Temperature 53 °F 60 °F 44 °F (1974)
Degree Days  
Heating Degree Days 0 0  
Month to date heating degree days 0 0  
Since 1 July heating degree days 10 5  
Cooling Degree Days 3 6  
Month to date cooling degree days 24 27  
Year to date cooling degree days 828 947  
Growing Degree Days 18 (Base 50)    
Moisture  
Dew Point 58 °F    
Average Humidity 72    
Maximum Humidity 100    
Minimum Humidity 43    
Precipitation  
Precipitation 0.00 in 0.11 in 1.09 in (2008)
Month to date precipitation 0.00 0.49  
Year to date precipitation 38.25 26.39  
Sea Level Pressure  
Sea Level Pressure 30.13 in    
Wind  
Wind Speed 2 mph (WNW)    
Max Wind Speed 9 mph    
Max Gust Speed 13 mph    
Visibility 10 miles    
Events      
T = Trace of Precipitation, MM = Missing Value Source: NWS Daily Summary

Daily Weather History Graph

Daily Weather History Graph

Search for Another Location

Airport or City:

Trip Planner

Search our weather history database for the weather conditions in past years. The results will help you decide how hot, cold, wet, or windy it might be!

Date:

Astronomy

Sep. 04, 2013 Rise Set
Actual Time 6:24 AM CDT 7:18 PM CDT
Civil Twilight 5:57 AM CDT 7:46 PM CDT
Nautical Twilight 5:24 AM CDT 8:18 PM CDT
Astronomical Twilight 4:50 AM CDT 8:52 PM CDT
Moon 5:36 AM CDT (9/4) 6:38 PM CDT (9/4)
Length of Visible Light 13h 49m
Length of Day
12h 54m
Waning Crescent, 1% of the Moon is Illuminated
Sep 4
Waning Crescent
Sep 5
New
Sep 12
First Quarter
Sep 19
Full
Sep 26
Last Quarter

Hourly Weather History & Observations

Time (CDT) Temp. Heat Index Dew Point Humidity Pressure Visibility Wind Dir Wind Speed Gust Speed Precip Events Conditions
12:53 AM 60.1 °F - 57.0 °F 90% 30.08 in 10.0 mi South 3.5 mph - N/A   Clear
1:53 AM 59.0 °F - 55.9 °F 90% 30.08 in 10.0 mi Calm Calm - N/A   Clear
2:53 AM 57.0 °F - 55.9 °F 96% 30.09 in 10.0 mi Calm Calm - N/A   Clear
3:53 AM 55.0 °F - 54.0 °F 96% 30.09 in 10.0 mi Calm Calm - N/A   Clear
4:53 AM 54.0 °F - 54.0 °F 100% 30.10 in 10.0 mi Calm Calm - N/A   Clear
5:53 AM 54.0 °F - 54.0 °F 100% 30.12 in 10.0 mi Calm Calm - N/A   Clear
6:53 AM 55.0 °F - 54.0 °F 96% 30.14 in 10.0 mi Calm Calm - N/A   Clear
7:53 AM 62.1 °F - 57.9 °F 86% 30.15 in 10.0 mi Calm Calm - N/A   Clear
8:53 AM 66.9 °F - 59.0 °F 76% 30.16 in 10.0 mi Calm Calm - N/A   Clear
9:53 AM 72.0 °F - 57.9 °F 61% 30.17 in 10.0 mi Calm Calm - N/A   Clear
10:53 AM 75.9 °F - 57.0 °F 52% 30.17 in 10.0 mi NW 4.6 mph - N/A   Clear
11:53 AM 77.0 °F - 57.9 °F 52% 30.16 in 10.0 mi Variable 5.8 mph - N/A   Clear
12:53 PM 78.1 °F - 57.0 °F 48% 30.14 in 10.0 mi North 5.8 mph - N/A   Clear
1:53 PM 81.0 °F 81.1 °F 57.9 °F 45% 30.14 in 10.0 mi NNW 5.8 mph - N/A   Clear
2:53 PM 82.0 °F 82.0 °F 57.9 °F 44% 30.13 in 10.0 mi Variable 5.8 mph - N/A   Clear
3:53 PM 82.9 °F 82.8 °F 59.0 °F 44% 30.12 in 10.0 mi North 6.9 mph - N/A   Clear
4:53 PM 81.0 °F 81.1 °F 57.9 °F 45% 30.11 in 10.0 mi Variable 4.6 mph - N/A   Clear
5:53 PM 81.0 °F 81.3 °F 59.0 °F 47% 30.11 in 10.0 mi Calm Calm - N/A   Clear
6:53 PM 73.9 °F - 63.0 °F 68% 30.11 in 10.0 mi Calm Calm - N/A   Clear
7:53 PM 70.0 °F - 63.0 °F 78% 30.12 in 10.0 mi Calm Calm - N/A   Clear
8:53 PM 68.0 °F - 64.0 °F 87% 30.12 in 10.0 mi Calm Calm - N/A   Clear
9:53 PM 66.9 °F - 64.0 °F 90% 30.12 in 10.0 mi Calm Calm - N/A   Clear
10:53 PM 69.1 °F - 63.0 °F 81% 30.13 in 10.0 mi SSW 5.8 mph - N/A   Clear
11:53 PM 66.9 °F - 62.1 °F 84% 30.14 in 10.0 mi SSW 4.6 mph - N/A   Clear